User: anonymous   Login
Location: Aiyekoto
(8.4333°N, 4.3667°E)
Time: 12:02:56
(UTC+00:00)
Language:

ADEOS - Orbit

View from above orbital plane
View from above orbital plane
View from above satellite
View from above satellite

Ground track
Ground track

The orbit data is extracted from the following two-line orbital elements,

1 24277U 96046A   20226.93031573 -.00000027 +00000-0 +75370-5 0  9997
2 24277 098.8777 203.3839 0001194 146.6659 213.4597 14.29452237250827
Epoch (UTC): 13 August 2020 22:19:39
Eccentricity: 0.0001194
inclination: 98.8777°
perigee height: 793 km
apogee height: 794 km
right ascension of ascending node: 203.3839°
argument of perigee: 146.6659°
revolutions per day: 14.29452237
mean anomaly at epoch: 213.4597°
orbit number at epoch: 25082

The dashed part of the orbit path shows where the satellite is in the earth's shadow,  

DLR